GREENCUBE (IO-117)

Last updated on Fri Dec 19 2025 00:03:11 GMT+0000 (Coordinated Universal Time)

1 53109U 22080E 25352.02348561 -.00000003 00000+0 00000+0 0 9998 2 53109 70.1588 1.2433 0009188 326.6831 33.3249 6.42583162 80422
UTC large
Height (km)
Speed (km/s)
/
Latitude / Longitude
Inclination (degrees)
Orbital Period (minutes)
Azimuth
Elevation
Range (km)
Doppler Factor

Next 0 passes for location: London (51.5072 / 0.1276)

Sorry there are no passes over London.